Location: Songkhla
(7.2000°N, 100.6000°E)
Time: 19:42:07
(UTC+07:00)

Cosmos 1538 Rocket - Pass Details

Date: 16 April 2026
Orbit: 748 x 787 km, 74.0° (Epoch: 20 May)

Event Time Altitude Azimuth Distance (km) Brightness Sun altitude
Rises 19:54:55 0° 345° (NNW) 3,189 7.6 -22.4°
Reaches altitude 10° 19:57:16 10° 344° (NNW) 2,270 6.8 -22.9°
Maximum altitude 20:02:24 79° 258° (WSW) 775 4.0 -24.2°
Enters shadow 20:04:31 37° 177° (S) 1,172 4.8 -24.7°
